星链-36454(STARLINK-36454)

导读 | 豆包AI

STARLINK-36454是美国SpaceX公司星链(Starlink)星座的一颗卫星,于2026年1月14日发射入轨。星链计划旨在搭建全球覆盖的低轨互联网卫星星座,为全球偏远地区提供高速低延迟宽带服务,该卫星属于二代星链组网卫星,目前已在轨运营,是SpaceX计划部署的数万颗星链卫星之一,助力实现全球无缝网络覆盖。

基本信息
目录编号:
67470
目录名称:
STARLINK-36454
国际标识:
2026-008AB
轨道中心:
EARTH
卫星名称:
星链-36454
卫星全名:
星链-36454(STARLINK-36454)
卫星状态:
在轨 (已飞行80 天)
发射日期:
2026-01-14 UTC
国别 :
美国 (US)
星等 :
--
轨道信息
数据来源 国际轨道数据
星历时间: 2026-04-03T14:29:35+0800
18小时前
查看轨道信息
半长轴: 6861.077km
偏心率: 0.0001699
轨道倾角: 42.998°
近地点辐角 255.686°
升交点赤经 66.204°
平近点角 104.380°
近地点: 481.774km
远地点: 484.106km
周期: 94.264分钟
每日圈数: 15.276167
详细信息
固有亮度:
5
最大亮度:
2.5
卫星平台:
Starlink V1.0
覆盖范围:
全球
运营商:
太空探索技术公司
运营商所在国:
美国
制造商(研发单位):
太空探索技术公司
制造商所在国:
美国
使用方式:
暂无
卫星简介
Starlink 计划是 SpaceX 推出的全球卫星互联网项目,通过发射低轨道卫星,为全球尤其是偏远地区提供高速、低延迟的互联网服务。自 2019 年起,Starlink 已部署数千颗卫星,旨在缩小全球数字鸿沟,推动互联网普及。该项目还为军事、航空等行业提供通信支持,带来广泛经济效益。
2D轨道图
3D轨道图
轨道高度分析图
轨道倾角分析图
轨道综合分析图
查看轨道综合分析图